TimeEST,TemperatureF,Dew PointF,Humidity,Sea Level PressureIn,VisibilityMPH,Wind Direction,Wind SpeedMPH,Gust SpeedMPH,PrecipitationIn,Events,Conditions,WindDirDegrees,DateUTC
12:54 AM,48.0,37.9,68,30.36,10.0,NNE,10.4,-,N/A,,Overcast,30,2012-11-19 05:54:00
1:54 AM,48.0,37.9,68,30.35,10.0,NNE,13.8,23.0,N/A,,Overcast,30,2012-11-19 06:54:00
2:54 AM,48.0,37.9,68,30.34,10.0,NNE,15.0,21.9,N/A,,Overcast,30,2012-11-19 07:54:00
3:54 AM,48.0,39.0,71,30.32,10.0,NNE,12.7,19.6,N/A,,Overcast,30,2012-11-19 08:54:00
4:54 AM,48.0,39.9,74,30.32,10.0,NNE,9.2,17.3,N/A,,Overcast,30,2012-11-19 09:54:00
5:54 AM,46.9,42.1,83,30.34,10.0,NNE,12.7,18.4,N/A,,Overcast,30,2012-11-19 10:54:00
6:24 AM,46.4,42.8,87,30.33,10.0,NNE,11.5,-,N/A,,Overcast,30,2012-11-19 11:24:00
6:54 AM,46.9,41.0,80,30.34,10.0,NNE,12.7,-,N/A,,Overcast,30,2012-11-19 11:54:00
7:54 AM,48.0,41.0,77,30.33,10.0,NNE,13.8,-,N/A,,Overcast,30,2012-11-19 12:54:00
8:54 AM,48.9,41.0,74,30.33,10.0,NNE,11.5,-,N/A,,Overcast,30,2012-11-19 13:54:00
9:54 AM,50.0,39.9,68,30.33,10.0,NE,10.4,21.9,N/A,,Overcast,40,2012-11-19 14:54:00
10:54 AM,52.0,39.9,63,30.33,10.0,NNE,12.7,20.7,N/A,,Overcast,30,2012-11-19 15:54:00
11:54 AM,54.0,39.9,59,30.30,10.0,NNE,12.7,17.3,N/A,,Mostly Cloudy,20,2012-11-19 16:54:00
12:54 PM,55.0,41.0,59,30.27,10.0,NNE,11.5,18.4,N/A,,Overcast,30,2012-11-19 17:54:00
1:54 PM,55.9,41.0,57,30.25,10.0,North,10.4,-,N/A,,Mostly Cloudy,360,2012-11-19 18:54:00
2:54 PM,55.9,41.0,57,30.24,10.0,NNE,8.1,-,N/A,,Mostly Cloudy,30,2012-11-19 19:54:00
3:54 PM,55.9,41.0,57,30.24,10.0,NNE,9.2,-,N/A,,Mostly Cloudy,30,2012-11-19 20:54:00
4:54 PM,53.1,41.0,64,30.23,10.0,NE,8.1,-,N/A,,Scattered Clouds,40,2012-11-19 21:54:00
5:54 PM,51.1,41.0,68,30.24,10.0,North,3.5,-,N/A,,Scattered Clouds,10,2012-11-19 22:54:00
6:54 PM,50.0,41.0,71,30.24,10.0,North,4.6,-,N/A,,Clear,10,2012-11-19 23:54:00
7:54 PM,48.9,41.0,74,30.23,10.0,NE,6.9,-,N/A,,Clear,50,2012-11-20 00:54:00
8:54 PM,48.0,39.9,74,30.22,10.0,North,5.8,-,N/A,,Clear,360,2012-11-20 01:54:00
9:54 PM,46.9,39.0,74,30.21,10.0,NNE,5.8,-,N/A,,Clear,30,2012-11-20 02:54:00
10:54 PM,46.0,39.0,76,30.20,10.0,NNE,4.6,-,N/A,,Clear,20,2012-11-20 03:54:00
11:54 PM,45.0,39.0,80,30.20,10.0,North,3.5,-,N/A,,Clear,350,2012-11-20 04:54:00